sat.trackr.live / text

‹ back to catalog

KUIPER-00019

NORAD 63734 · 2025-088L

PAYLOAD ACTIVE UNKNOWN

§ Identity

Operator
Country
US
Launch date
2025-04-28
Launch site
AFETR
Launch vehicle
Mass (kg)
RCS (m²)

External: N2YO · Heavens-Above · Gunter

§ Orbital elements

Epoch: 2026-05-25T04:37:54.735168Z

Period
97.30 min
Inclination
51.8990°
Eccentricity
0.0000554
Mean motion
14.79927942 rev/d
Perigee alt
629.2 km
Apogee alt
629.9 km
Semi-major
7,007.7 km
B*
2.8614e-4
RAAN
121.0595°
Arg perigee
161.6788°
Mean anomaly
198.4195°
Rev number
5,883

§ Raw data

KUIPER-000191 63734U 25088L   26145.19299462  .00001961  00000+0  28614-3 0  99962 63734  51.8990 121.0595 0000554 161.6788 198.4195 14.79927942 58836

JSON: /api/v1/satellites/63734 · /tle

For live sub-satellite position, see the globe view (requires WebGL).

§ Visibility from observer

Set your observer location to see the next 7 days of passes ≥ 10°. The values pass through the URL so the page stays shareable.

No JS? Fill the form by hand. The geolocation button needs JavaScript.